Weather Roundup
Issued by NWS Corpus Christi, TX

Home | Current Version | Previous Version | Text Only | Print | Product List | Glossary On
Versions: 1 2 3 4 5 6 7 8 9 10 11 12 13 14 15 16 17 18 19 20 21 22 23 24 25 26 27 28 29 30 31 32 33 34 35 36 37 38 39 40 41 42 43 44 45 46 47 48 49 50
000
ASUS44 KCRP 020410
HRRCRP

SOUTH TEXAS REGIONAL WEATHER ROUNDUP
NATIONAL WEATHER SERVICE CORPUS CHRISTI TX
1100 PM CDT FRI AUG 01 2014


TXZ229>244-020500-
...CORPUS CHRISTI AREA OBSERVATIONS...

CITY           SKY/WX    TMP DP  RH WIND       PRES   REMARKS
CORPUS CHRISTI CLOUDY    83  76  79 S7        29.95R HX  91
NAS CORPUS CHR CLOUDY    83  78  85 S7        29.95R HX  93
ROCKPORT       CLOUDY    84  77  79 SE5       29.95S HX  94
KINGSVILLE NAS CLOUDY    84  78  82 S9        29.95R HX  95
ALICE          CLOUDY    79  78  97 CALM      29.96R
FALFURRIAS     CLOUDY    75  69  81 CALM      29.96R
$$

...VICTORIA AREA OBSERVATIONS...

CITY           SKY/WX    TMP DP  RH WIND       PRES   REMARKS
VICTORIA       PTCLDY    81  77  88 E3        29.98R
BEEVILLE       FAIR      80  74  82 E5        29.96R
PLEASANTON     PTCLDY    83  68  60 E7        29.99R
SAN ANTONIO    PTCLDY    82  64  54 NE9       30.02R
$$

...LAREDO AREA OBSERVATIONS...

CITY           SKY/WX    TMP DP  RH WIND       PRES   REMARKS
LAREDO         LGT RAIN  79  73  81 SE7       30.01R
COTULLA        CLOUDY    82  70  66 SE8       29.97R
DEL RIO        CLOUDY    85  66  53 CALM      29.97R
MCALLEN        MOCLDY    85  75  72 SE15      29.95R HX  93
HEBBRONVILLE   NOT AVBL
$$

...OTHER TEXAS OBSERVATIONS...

CITY           SKY/WX    TMP DP  RH WIND       PRES   REMARKS
BROWNSVILLE    PTCLDY    82  78  88 E6        29.95R HX  91
HOUSTON        PTCLDY    75  69  81 N5        29.99R
COL. STATION   CLEAR     73  67  81 N8        30.02R
AUSTIN         CLEAR     77  67  71 NE8       30.02R
WACO           CLOUDY    76  65  68 E6        30.05R
FORT WORTH     MOCLDY    73  65  75 NE5       30.05R
WICHITA FALLS  CLEAR     72  66  81 E7        30.07R
LUBBOCK        MOCLDY    72  48  42 E8        30.18R
EL PASO        MOCLDY    73  63  70 E8        30.15R
$$

...MARINE OBSERVATIONS...

STATION/POSITION TIME  SKY/WX   TEMP    WIND        PRES    VSBY  WAVE   SWELL
                                AIR SEA DIR/SP/G                  HT/PER HT/PER
                 (UTC)          (F)     (DEG/KT/KT) (MB)    (MI)  (FT/S) (FT/S)
PORT ARANSAS     0300            82 84  150/  3/  3 1014.5R
BUOY 90 E PORT A 0400            84 84  150/  2/  2 1015.1R         1/ 5   2/ 5
BUOY 45 SE BAFFI 0300            84 85  170/ 10/ 12 1013.3R         2/ 5   2/ 5
BUOY 200 E PT IS 0300            85 86   90/  6/  8 1014.1R         1/ 5
BUOY 15 E GALVES NOT AVBL
$$



USA.gov is the U.S. government's official web portal to all federal, state and local government web resources and services.